Location: Shannon
(40.5500°S, 175.4167°E)
Time: 20:19:53
(UTC+00:00)

H-2A R/B - Pass Details

Date: 17 November 2025
Orbit: 522 x 537 km, 98.2° (Epoch: 14 December)

Event Time Altitude Azimuth Distance (km) Brightness Sun altitude
Rises 15:44:03 0° 15° (NNE) 2,655 6.6 -11.3°
Reaches altitude 10° 15:46:08 10° 15° (NNE) 1,777 5.7 -11.0°
Maximum altitude 15:49:58 87° 103° (ESE) 544 3.3 -10.5°
Drops below altitude 10° 15:53:53 10° 192° (SSW) 1,814 6.3 -9.8°
Sets 15:56:02 0° 192° (SSW) 2,717 7.2 -9.5°
